This is the latest recevied weather packets stored in our database for station/object N8BAP. If no packets are shown the sender has not sent any weather packets the latest 10 day(s).
| Time | Temp. | Humidity | Pressure | Rain* | Wind** | Luminosity | Snow |
|---|---|---|---|---|---|---|---|
| 1777585648 | 13.33° C | 46% | 1020.2 hPa | 0 mm | - | 303 W/m² | - |
| 1777585343 | 12.78° C | 45% | 1020.3 hPa | 0 mm | - | 394 W/m² | - |
| 1777585038 | 13.33° C | 48% | 1020.5 hPa | 0 mm | - | 104 W/m² | - |
| 1777584735 | 13.33° C | 46% | 1020.3 hPa | 0 mm | - | 278 W/m² | - |
| 1777584433 | 14.44° C | 45% | 1020.1 hPa | 0 mm | - | 116 W/m² | - |
| 1777584129 | 14.44° C | 46% | 1020.4 hPa | 0 mm | - | 453 W/m² | - |
| 1777583828 | 14.44° C | 43% | 1020.2 hPa | 0 mm | - | 449 W/m² | - |
| 1777583523 | 14.44° C | 43% | 1020.2 hPa | 0 mm | - | 472 W/m² | - |
| 1777583218 | 14.44° C | 42% | 1020.4 hPa | 0 mm | - | 424 W/m² | - |
| 1777582912 | 14.44° C | 45% | 1020.4 hPa | 0 mm | - | 458 W/m² | - |
| 1777582610 | 14.44° C | 45% | 1020.4 hPa | 0 mm | - | 495 W/m² | - |
| 1777582305 | 13.89° C | 44% | 1020.4 hPa | 0 mm | - | 533 W/m² | - |
| 1777582003 | 13.33° C | 47% | 1020.4 hPa | 0 mm | - | 557 W/m² | - |
| 1777581693 | 13.89° C | 44% | 1020.5 hPa | 0 mm | - | 189 W/m² | - |
| 1777581387 | 13.89° C | 48% | 1020.5 hPa | 0 mm | - | 546 W/m² | - |
| 1777581087 | 14.44° C | 44% | 1020.2 hPa | 0 mm | - | 562 W/m² | - |
| 1777580786 | 14.44° C | 53% | 1020.6 hPa | 0 mm | - | 600 W/m² | - |
| 1777580483 | 13.33° C | 53% | 1020.3 hPa | 0 mm | - | 617 W/m² | - |
| 1777580178 | 12.78° C | 49% | 1020.4 hPa | 0 mm | - | 636 W/m² | - |
| 1777579875 | 12.78° C | 53% | 1020.9 hPa | 0 mm | - | 220 W/m² | - |
| 1777579574 | 12.78° C | 50% | 1020.9 hPa | 0 mm | - | 174 W/m² | - |
| 1777579268 | 12.78° C | 55% | 1020.7 hPa | 0 mm | - | 177 W/m² | - |
| 1777578964 | 12.22° C | 51% | 1020.8 hPa | 0 mm | - | 212 W/m² | - |
| 1777578660 | 12.22° C | 52% | 1020.7 hPa | 0 mm | - | 492 W/m² | - |
| 1777578358 | 12.22° C | 51% | 1020.8 hPa | 0 mm | - | 147 W/m² | - |
* Rain latest hour (hover to see other rain measurements)
** Current wind speed in m/s (hover to see current wind gust speed)